Regional Weather Roundup
Issued by NWS

Home | Current Version | Previous Version | Text Only | Print | Product List | Glossary On
Versions: 1 2 3 4 5 6 7 8 9 10 11 12 13 14 15 16 17 18 19 20 21 22 23 24 25 26 27 28 29 30 31 32 33 34 35 36 37 38 39 40 41 42 43 44 45 46 47 48 49 50
867
ASUS45 KTFX 221510
RWRMT
MONTANA REGIONAL WEATHER ROUNDUP
NATIONAL WEATHER SERVICE GREAT FALLS MT
800 AM MST THU FEB 22 2018

NOTE: "FAIR" INDICATES FEW OR NO CLOUDS BELOW 12000 FEET WITH NO
SIGNIFICANT WEATHER AND/OR OBSTRUCTIONS TO VISIBILITY.

MTZ001>007-043-221600-
WEST OF THE DIVIDE

CITY           SKY/WX    TMP DP  RH WIND       PRES   REMARKS
KALISPELL      CLOUDY     8   3  80 NW6       30.12R WCI  -2
MISSOULA       CLOUDY     8   5  87 CALM      30.07S
BUTTE          FAIR       1  -4  79 CALM      29.91R
MULLAN PASS    CLOUDY     4   2  91 SE7       29.84R FOG     WCI  -8
ANACONDA         N/A      1  -2  85 W3        29.96R
DEER LODGE       N/A      1  -2  85 CALM      30.01R
HAMILTON         N/A     12   9  85 MISG      30.04R
PLAINS           N/A      2 -10  57 CALM      30.14R
RONAN            N/A     -4  -8  84 NE3       30.13R
$$

MTZ008-052>055-221600-
SOUTHWEST MONTANA

CITY           SKY/WX    TMP DP  RH WIND       PRES   REMARKS
BOZEMAN        CLOUDY     2  -3  80 CALM      30.00R
DILLON         MOCLDY     0   0 100 CALM      29.91R
ENNIS          CLOUDY    12   5  73 CALM      29.95R
W YELLOWSTONE  LGT SNOW   0  -4  85 CALM      29.91R
THREE FORKS      N/A      1  -5  76 CALM      30.00R
TWIN BRIDGES     N/A      7  -2  66 CALM      29.94R
$$

MTZ009-010-012-014-046-048-049-054-221600-
EAST SLOPES AND CENTRAL MONTANA

CITY           SKY/WX    TMP DP  RH WIND       PRES   REMARKS
CUT BANK       FAIR      -1  -7  75 NW6       30.11R WCI -13
GREAT FALLS    FAIR      -2  -9  72 W5        30.10R
MALMSTROM AFB  FAIR       2  -5  73 SW5       30.13R
HELENA         CLOUDY     3  -2  79 N5        30.07R
AUGUSTA        FAIR      -6 -13  73 N8        30.05R WCI -21
BOWMANS CRNR   FAIR       2  -8  62 NE6       30.04R WCI  -9
CHOTEAU          N/A      1  -9  60 W3        30.12R
CONRAD           N/A      2  -6  69 CALM      30.12R
FAIRFIELD      FAIR       2  -9  61 NW5       30.09R
POWER          FAIR      -4 -12  71 NW7       30.09R WCI -18
RAYNESFORD     FAIR       1  -5  75 CALM      30.09R
ULM            MOCLDY    -3  -8  79 S6        30.12R WCI -16
WHITE SULPHUR    N/A     -2  -6  84 CALM      29.98R
$$

MTZ011-013-016-021-045-047-050-051-221600-
NORTH CENTRAL MONTANA

CITY           SKY/WX    TMP DP  RH WIND       PRES   REMARKS
HAVRE          FAIR     -20 -25  77 W6        30.22R WCI -35
LEWISTOWN      FAIR      -4  -6  91 SE6       30.06R WCI -16
N BAR RANCH    FAIR       0  -9  65 CALM      30.06R
CHINOOK          N/A    -20 -26  76 CALM      30.24S
GEYSER         MOCLDY     6  -4  63 CALM      30.07R
STANFORD       FAIR       8  -3  59 NW5       30.04R
WINIFRED       FAIR       5  -3  68 W8        30.09R WCI  -8
$$

MTZ017>020-022>027-061-062-221600-
NORTHEAST MONTANA

CITY           SKY/WX    TMP DP  RH WIND       PRES   REMARKS
GLASGOW        FAIR     -20 -24  82 SW5       30.22R
GLENDIVE       FAIR      -9 -15  75 SW7       30.21R WCI -24
JORDAN           N/A    -18 -23  77 W8        30.15R WCI -36
MALTA          CLEAR    -29 -35  75 CALM      30.24R
SIDNEY         FAIR     -15 -20  78 S5        30.25R
WOLF POINT     FAIR     -23 -30  70 SW6       30.26R WCI -39
PLENTYWOOD       N/A     -6 -11  77 CALM      30.19R
POPLAR           N/A    -22 -29  69 NW3       30.26R
SCOBEY           N/A    -21 -32  57 CALM      30.13R
$$

MTZ028>42-056>058-221600-
SOUTHCENTRAL AND SOUTHEAST MONTANA

CITY           SKY/WX    TMP DP  RH WIND       PRES   REMARKS
BAKER          FAIR     -15 -19  82 SE3       30.16R
BILLINGS       FAIR      -2  -7  79 S7        30.07R WCI -15
LIVINGSTON     CLOUDY     0  -4  83 NW8       30.00R WCI -14
MILES CITY     FAIR     -20 -23  86 W3        30.19R
BIG TIMBER     MOCLDY     1  -4  78 CALM      30.05R
EKALAKA          N/A     13  -5  44 SE9       30.06R WCI   1
FORSYTH          N/A    -15 -20  76 CALM      30.18R
HARLOWTON      FAIR       0  -6  76 NW16      30.03R WCI -20
LAUREL           N/A     -2  -9  71 CALM      30.10R
$$

REGIONAL REPORTS...DAKOTAS

CITY           SKY/WX    TMP DP  RH WIND       PRES   REMARKS
WILLISTON      FAIR     -10 -15  78 S3        30.25R
MINOT          FAIR      -2  -9  72 SW3       30.26R
DICKINSON      FAIR      -5 -14  65 CALM      30.18R
BEACH          FAIR      -8 -13  77 S7        30.20R WCI -22
CROSBY         FAIR      -4 -13  65 SW15      30.21S WCI -25
TIOGA          FAIR     -13 -17  84 S3        30.22R
WATFORD CITY   FAIR     -11 -17  77 CALM      30.24R
BISMARCK       FAIR      -5  -9  83 CALM      30.33R
GRAND FORKS    FAIR      -1  -6  79 S8        30.44S WCI -15
FARGO          FAIR       8   1  73 S14       30.46S WCI  -8
BUFFALO SD       N/A     -3  -8  79 CALM      30.07R
RAPID CITY     PTSUNNY    1  -4  79 CALM      30.14R
$$

REGIONAL REPORTS...WYOMING/IDAHO/WASHINGTON

CITY           SKY/WX    TMP DP  RH WIND       PRES   REMARKS
GILLETTE       FAIR      -8 -13  78 CALM      30.04R
SHERIDAN       FAIR      -6 -10  83 CALM      30.06R
BUFFALO WY     FAIR      13  -4  46 W9        30.01R WCI   1
CODY           FAIR      10  -2  58 SW6       30.00R WCI   0
YELLOWSTONE LA   N/A    -10 -15  78 CALM      29.90R
IDAHO FALLS    FAIR      13   6  74 CALM      29.97R
SALMON         LGT SNOW  20  16  84 CALM      29.95R FOG
BOISE          LGT SNOW  24  22  91 W9        29.95R VSB 1   WCI  14
SPOKANE        FLURRIES  16  12  84 NE10      30.10R WCI   4
$$

REGIONAL REPORTS...ALBERTA

CITY           SKY/WX    TMP DP  RH WIND       PRES   REMARKS
CALGARY        CLOUDY    12   1  62 W6        30.13R WCI   3
CARDSTON         N/A      7   1  78 W1          N/A
EDMONTON       CLOUDY    18  10  73 W10       30.15R WCI   6
FORT MCMURRAY  CLOUDY    18  10  73 W8        30.04R WCI   7
HIGH LEVEL     MOCLDY    12   7  79 VRB2      30.08S
LETHBRIDGE     CLOUDY     1  -6  71 SW10      30.19R WCI -14
LLOYDMINSTER   MOCLDY     7   3  85 W13       30.08R WCI  -9
MEDICINE HAT   MOCLDY    -4  -9  77 SW10      30.21R WCI -21
MILK RIVER       N/A      7   1  78 N10         N/A  WCI  -8
PEACE RIVER    PTCLDY     9   5  85 W12       30.16R WCI  -6
PINCHER CREEK  FLURRIES   5   0  78 W8        30.13R WCI  -8
WATERTON GATE    N/A      3   0  85 CALM        N/A
$$

REGIONAL REPORTS...SASKATCHEWAN

CITY           SKY/WX    TMP DP  RH WIND       PRES   REMARKS
ESTEVAN        SUNNY     -4 -11  71 SW8       30.21R WCI -19
MOOSE JAW        N/A     -2  -9  71 SW10        N/A  WCI -19
PRINCE ALBERT  MOCLDY    -8 -13  77 SW7       30.11R WCI -22
REGINA         MOCLDY   -13 -18  77 SE6       30.18R WCI -27
ROCKGLEN         N/A     -6 -11  77 W9          N/A  WCI -22
SASKATOON      PTCLDY   -13 -18  77 SW9       30.15R WCI -31
SWIFT CURRENT  PTCLDY    -2 -11  65 W14       30.09R WCI -21
$$




USA.gov is the U.S. government's official web portal to all federal, state and local government web resources and services.